Latest Weather Observations for Mount Hotham Airport

IDV60801

Issued at 4:02 pm EST Friday 29 May 2015 (issued every 30 minutes, with the page automatically refreshed every 10 minutes)

About weather observations | Map of weather stations | Latest weather observations for VIC | Other Formats
Station Details ID: 083055 Name: MOUNT HOTHAM AIRPORT Lat: -37.05 Lon: 147.33 Height: 1295.4 m
Data from the previous 72 hours. | See also: Recent months at Mount Hotham Airport
Date/Time
EST
Temp
°C
App
Temp
°C
Dew
Point
Rel
Hum
%
Delta-T
°C
Wind Press
QNH
hPa
Press
MSL
hPa
Rain
since 9 am
mm
Dir
 
Spd
km/h
Gust
km/h
Spd
kts
Gust
kts
29/04:00pm 5.8 0.1 -1.1 61 2.8 NW 19 22 10 12 1020.4 - 0.0
29/03:30pm 7.2 3.0 -0.7 57 3.3 W 11 17 6 9 1020.4 - 0.0
29/03:00pm 7.5 2.1 -1.2 54 3.6 W 17 26 9 14 1020.2 1021.4 0.0
29/02:30pm 7.8 2.4 -1.2 53 3.7 NW 17 28 9 15 1019.8 - 0.0
29/02:00pm 8.8 3.1 -0.5 52 4.0 NW 19 28 10 15 1019.6 - 0.0
29/01:30pm 8.5 3.1 -1.6 49 4.2 NW 17 26 9 14 1019.5 - 0.0
29/01:00pm 8.7 3.2 -2.0 47 4.4 WNW 17 24 9 13 1019.5 - 0.0
29/12:30pm 8.0 2.0 -3.2 45 4.4 NNW 19 26 10 14 1019.8 - 0.0
29/12:00pm 8.2 2.7 -1.9 49 4.1 NW 17 24 9 13 1020.1 1021.2 0.0
29/11:30am 8.0 2.7 -0.7 54 3.7 NW 17 24 9 13 1020.3 - 0.0
29/11:00am 7.4 1.8 -0.3 58 3.3 NW 19 28 10 15 1020.6 - 0.0
29/10:30am 7.5 2.3 0.3 60 3.1 NNW 17 30 9 16 1020.8 - 0.0
29/10:00am 7.1 1.4 -0.8 57 3.3 W 19 30 10 16 1020.7 - 0.0
29/09:30am 7.4 2.3 0.6 62 2.9 W 17 24 9 13 1020.2 - 0.0
29/09:00am 6.9 2.2 0.8 65 2.6 WNW 15 24 8 13 1020.1 1021.2 1.8
29/08:30am 6.2 1.4 0.5 67 2.4 NW 15 24 8 13 1019.7 - 1.8
29/08:00am 5.3 0.2 0.9 73 1.9 WNW 17 28 9 15 1019.6 - 1.8
29/07:30am 5.4 1.2 1.7 77 1.6 WNW 13 24 7 13 1019.5 - 1.8
29/07:00am 5.5 0.0 2.0 78 1.5 WNW 20 35 11 19 1018.8 - 1.8
29/06:30am 5.1 -1.1 2.3 82 1.2 WNW 24 43 13 23 1018.4 - 1.8
29/06:00am 5.0 -0.4 2.7 85 1.0 W 20 33 11 18 1018.2 1019.4 1.8
29/05:30am 5.7 -1.4 1.6 75 1.8 WNW 28 43 15 23 1017.9 - 1.8
29/05:12am 5.9 -1.5 2.0 76 1.7 WNW 30 48 16 26 1017.9 - 1.8
29/05:09am 5.9 -1.5 2.0 76 1.7 WNW 30 48 16 26 1017.9 - 1.8
29/05:00am 6.2 -2.1 2.1 75 1.8 WNW 35 50 19 27 1017.7 - 1.8
29/04:32am 6.2 -1.8 1.9 74 1.9 WNW 33 52 18 28 1017.3 - 1.8
29/04:30am 6.2 -1.8 1.9 74 1.9 WNW 33 52 18 28 1017.3 - 1.8
29/04:09am 6.3 -1.5 1.8 73 2.0 WNW 32 54 17 29 1017.2 - 1.8
29/04:06am 6.3 -1.5 1.8 73 2.0 WNW 32 54 17 29 1017.2 - 1.8
29/04:00am 6.0 -1.8 1.5 73 2.0 WNW 32 44 17 24 1017.1 - 1.8
29/03:30am 6.2 -2.5 1.7 73 2.0 WNW 37 54 20 29 1016.9 - 1.8
29/03:09am 6.2 -1.8 1.9 74 1.9 WNW 33 57 18 31 1017.0 - 1.8
29/03:00am 6.2 -1.6 1.7 73 2.0 WNW 32 46 17 25 1016.9 1018.0 1.8
29/02:32am 6.0 -2.3 1.9 75 1.8 WNW 35 54 19 29 1017.1 - 1.8
29/02:30am 6.2 -2.1 2.1 75 1.8 WNW 35 54 19 29 1017.1 - 1.8
29/02:03am 6.2 -1.7 2.1 75 1.8 WNW 33 52 18 28 1016.9 - 1.8
29/02:00am 6.2 -1.7 2.1 75 1.8 WNW 33 52 18 28 1016.9 - 1.8
29/01:31am 6.7 -1.5 2.8 76 1.8 WNW 35 61 19 33 1016.5 - 1.8
29/01:30am 6.6 -1.6 2.7 76 1.8 WNW 35 61 19 33 1016.5 - 1.8
29/01:02am 6.6 -1.5 3.4 80 1.5 WNW 35 56 19 30 1016.7 - 1.8
29/01:00am 6.6 -1.5 3.4 80 1.5 WNW 35 56 19 30 1016.7 - 1.8
29/12:34am 6.4 -1.7 3.2 80 1.5 NW 35 54 19 29 1016.4 - 1.8
29/12:31am 6.4 -1.7 3.2 80 1.5 NW 35 54 19 29 1016.4 - 1.8
29/12:30am 6.4 -2.1 3.2 80 1.5 NW 37 54 20 29 1016.4 - 1.8
29/12:00am 6.6 -2.0 2.7 76 1.8 NW 37 54 20 29 1016.3 1017.4 1.8
 
Date/Time
EST
Temp
°C
App
Temp
°C
Dew
Point
Rel
Hum
%
Delta-T
°C
Wind Press
QNH
hPa
Press
MSL
hPa
Rain
since 9 am
mm
Dir
 
Spd
km/h
Gust
km/h
Spd
kts
Gust
kts
28/11:36pm 6.9 -2.8 3.0 76 1.8 NW 43 63 23 34 1016.3 - 1.8
28/11:33pm 6.9 -2.8 3.0 76 1.8 NW 43 63 23 34 1016.3 - 1.8
28/11:30pm 6.7 -3.0 2.8 76 1.8 NW 43 56 23 30 1016.4 - 1.8
28/11:00pm 7.0 -2.8 3.1 76 1.8 WNW 44 70 24 38 1016.2 - 1.8
28/10:32pm 7.3 -2.5 3.5 77 1.8 NW 44 65 24 35 1016.4 - 1.8
28/10:30pm 7.1 -2.7 3.3 77 1.7 NW 44 65 24 35 1016.4 - 1.8
28/10:00pm 7.2 -1.1 4.0 80 1.5 WNW 37 63 20 34 1016.5 - 1.8
28/09:49pm 7.2 -2.3 3.8 79 1.6 NW 43 67 23 36 1016.5 - 1.8
28/09:46pm 7.2 -2.3 3.8 79 1.6 NW 43 67 23 36 1016.5 - 1.8
28/09:30pm 7.1 -1.1 4.6 84 1.2 NW 37 54 20 29 1016.5 - 1.8
28/09:00pm 7.1 -1.4 5.3 88 0.9 NW 39 57 21 31 1016.8 1017.8 1.8
28/08:47pm 7.3 0.1 5.9 91 0.7 WNW 33 54 18 29 1016.9 - 1.8
28/08:44pm 7.3 0.1 5.9 91 0.7 WNW 33 54 18 29 1016.9 - 1.8
28/08:30pm 6.9 -0.2 5.5 91 0.7 NW 32 48 17 26 1017.1 - 1.6
28/08:01pm 7.0 -0.6 5.6 91 0.7 NW 35 54 19 29 1016.9 - 1.6
28/08:00pm 6.9 -0.8 5.5 91 0.7 NW 35 54 19 29 1017.0 - 1.6
28/07:36pm 6.9 0.2 5.4 90 0.7 NW 30 48 16 26 1017.1 - 1.4
28/07:33pm 6.9 0.2 5.4 90 0.7 NW 30 48 16 26 1017.1 - 1.4
28/07:30pm 6.8 -0.4 5.1 89 0.8 NW 32 48 17 26 1017.1 - 1.4
28/07:03pm 7.3 0.7 6.1 92 0.6 NW 30 48 16 26 1017.1 - 1.2
28/07:00pm 7.3 0.7 6.1 92 0.6 NW 30 48 16 26 1017.1 - 1.2
28/06:39pm 7.4 1.2 6.3 93 0.5 WNW 28 48 15 26 1017.1 - 1.0
28/06:36pm 7.4 1.2 6.3 93 0.5 WNW 28 48 15 26 1017.1 - 1.0
28/06:30pm 7.3 1.1 6.2 93 0.5 NW 28 44 15 24 1017.1 - 1.0
28/06:16pm 7.6 1.5 6.4 92 0.6 NW 28 46 15 25 1017.3 - 0.8
28/06:13pm 7.6 1.5 6.4 92 0.6 NW 28 46 15 25 1017.3 - 0.8
28/06:00pm 7.3 2.2 6.1 92 0.6 NW 22 37 12 20 1017.2 1018.3 0.6
28/05:30pm 7.4 1.2 6.0 91 0.7 NW 28 41 15 22 1017.4 - 0.4
28/05:11pm 7.3 1.0 5.8 90 0.7 NW 28 46 15 25 1017.2 - 0.2
28/05:08pm 7.3 1.0 5.8 90 0.7 NW 28 46 15 25 1017.2 - 0.2
28/05:00pm 7.4 3.4 5.0 85 1.1 NNW 15 33 8 18 1017.1 - 0.2
28/04:30pm 7.6 4.3 4.7 82 1.4 N 11 24 6 13 1017.1 - 0.2
28/04:00pm 7.7 2.9 4.8 82 1.4 NNW 19 32 10 17 1017.3 - 0.2
28/03:30pm 9.0 5.3 4.2 72 2.3 NNW 13 22 7 12 1017.1 - 0.2
28/03:00pm 8.7 4.0 5.1 78 1.7 NW 19 41 10 22 1017.3 1018.4 0.2
28/02:30pm 7.6 2.3 5.2 85 1.2 NW 22 43 12 23 1017.8 - 0.2
28/02:00pm 8.7 3.6 3.9 72 2.3 NNW 20 33 11 18 1017.9 - 0.0
28/01:30pm 8.5 3.3 5.3 80 1.6 NNW 22 35 12 19 1018.5 - 0.0
28/01:14pm 9.3 2.6 3.7 68 2.6 NW 28 48 15 26 1018.6 - 0.0
28/01:11pm 9.3 2.6 3.7 68 2.6 NW 28 48 15 26 1018.6 - 0.0
28/01:00pm 10.0 3.5 4.6 69 2.6 NNW 28 41 15 22 1018.7 - 0.0
28/12:35pm 8.7 2.0 3.9 72 2.3 NNW 28 46 15 25 1019.3 - 0.0
28/12:30pm 9.2 3.7 4.0 70 2.5 NNW 22 35 12 19 1019.3 - 0.0
28/12:00pm 9.7 3.9 4.3 69 2.6 NW 24 46 13 25 1019.7 1020.9 0.0
28/11:30am 8.0 2.5 3.8 75 2.0 NNW 22 41 12 22 1020.4 - 0.0
28/11:00am 8.0 2.8 3.7 74 2.0 NNW 20 28 11 15 1020.8 - 0.0
28/10:30am 8.1 2.1 3.4 72 2.2 NW 24 35 13 19 1021.2 - 0.0
28/10:00am 7.4 1.8 3.3 75 1.9 WNW 22 37 12 20 1021.1 - 0.0
28/09:30am 6.6 2.0 3.6 81 1.4 WNW 17 28 9 15 1021.1 - 0.0
28/09:00am 6.5 2.3 3.7 82 1.3 WNW 15 26 8 14 1021.3 1022.5 0.0
28/08:30am 6.4 2.3 4.6 88 0.8 NW 15 26 8 14 1021.2 - 0.0
28/08:00am 6.3 2.8 5.3 93 0.5 N 13 22 7 12 1021.0 - 0.0
28/07:30am 5.9 3.0 4.9 93 0.5 NNW 9 15 5 8 1020.8 - 0.0
28/07:00am 6.1 2.4 4.7 91 0.7 NW 13 22 7 12 1020.8 - 0.0
28/06:30am 6.4 3.9 4.9 90 0.7 NNW 7 11 4 6 1020.7 - 0.0
28/06:00am 5.7 2.7 3.9 88 0.8 NNW 9 15 5 8 1020.5 1021.7 0.0
28/05:30am 5.1 2.1 3.9 92 0.5 NNW 9 17 5 9 1020.2 - 0.0
28/05:00am 6.0 2.7 4.8 92 0.6 NW 11 19 6 10 1020.5 - 0.0
28/04:30am 6.4 1.6 4.4 87 0.9 NW 19 30 10 16 1020.5 - 0.0
28/04:00am 6.8 3.8 4.3 84 1.2 N 9 17 5 9 1020.5 - 0.0
28/03:30am 6.5 1.9 3.7 82 1.3 NW 17 24 9 13 1020.5 - 0.0
28/03:00am 6.4 2.9 3.7 83 1.2 N 11 17 6 9 1020.7 1021.9 0.0
28/02:30am 6.8 1.9 4.1 83 1.3 NW 19 30 10 16 1021.1 - 0.0
28/02:00am 6.2 3.7 3.5 83 1.2 N 6 11 3 6 1021.2 - 0.0
28/01:30am 6.0 3.3 3.7 85 1.1 N 7 13 4 7 1021.2 - 0.0
28/01:00am 6.2 3.5 3.7 84 1.1 NNW 7 19 4 10 1021.5 - 0.0
28/12:30am 6.1 2.3 3.9 86 1.0 NW 13 20 7 11 1021.8 - 0.0
28/12:00am 6.6 2.2 4.6 87 0.9 NW 17 22 9 12 1021.9 1023.1 0.0
 
Date/Time
EST
Temp
°C
App
Temp
°C
Dew
Point
Rel
Hum
%
Delta-T
°C
Wind Press
QNH
hPa
Press
MSL
hPa
Rain
since 9 am
mm
Dir
 
Spd
km/h
Gust
km/h
Spd
kts
Gust
kts
27/11:30pm 6.7 2.3 5.0 89 0.8 NW 17 22 9 12 1022.0 - 0.0
27/11:00pm 5.8 2.1 4.3 90 0.7 NW 13 19 7 10 1022.0 - 0.0
27/10:30pm 6.6 2.9 4.6 87 0.9 NW 13 20 7 11 1022.2 - 0.0
27/10:00pm 6.7 3.0 4.7 87 0.9 NW 13 20 7 11 1022.1 - 0.0
27/09:30pm 6.6 2.6 4.8 88 0.9 NW 15 22 8 12 1022.2 - 0.0
27/09:00pm 6.5 2.0 4.3 86 1.0 WNW 17 26 9 14 1022.2 1023.5 0.0
27/08:30pm 6.5 0.8 4.7 88 0.8 NW 24 33 13 18 1022.2 - 0.0
27/08:00pm 6.0 1.6 4.5 90 0.7 NW 17 20 9 11 1022.2 - 0.0
27/07:30pm 6.1 2.4 4.6 90 0.7 NW 13 20 7 11 1022.2 - 0.0
27/07:00pm 4.9 1.4 3.4 90 0.7 NW 11 20 6 11 1022.1 - 0.0
27/06:30pm 4.5 1.3 2.8 89 0.8 WNW 9 15 5 8 1021.8 - 0.0
27/06:00pm 5.7 2.7 3.9 88 0.8 NW 9 15 5 8 1021.8 1023.0 0.0
27/05:30pm 5.0 1.4 3.0 87 0.9 WNW 11 15 6 8 1021.5 - 0.0
27/05:00pm 6.0 1.7 3.2 82 1.3 NW 15 22 8 12 1021.4 - 0.0
27/04:30pm 7.0 2.7 3.3 77 1.7 NW 15 26 8 14 1021.2 - 0.0
27/04:00pm 8.1 3.0 3.9 75 2.0 NW 20 28 11 15 1021.0 - 0.0
27/03:30pm 8.2 2.8 4.6 78 1.7 NW 22 30 12 16 1021.0 - 0.0
27/03:00pm 7.8 2.8 4.4 79 1.6 NW 20 30 11 16 1021.3 1022.5 0.0
27/02:30pm 8.0 3.2 5.5 84 1.2 NW 20 30 11 16 1021.3 - 0.0
27/02:00pm 9.1 5.6 5.3 77 1.9 WNW 13 24 7 13 1021.2 - 0.0
27/01:30pm 9.4 4.4 4.6 72 2.3 NW 20 33 11 18 1021.4 - 0.0
27/01:00pm 9.7 4.3 4.7 71 2.4 NW 22 35 12 19 1021.6 - 0.0
27/12:30pm 8.0 1.9 4.6 79 1.6 NW 26 37 14 20 1022.1 - 0.0
27/12:00pm 9.5 4.6 5.3 75 2.0 NW 20 28 11 15 1022.4 1023.7 0.0
27/11:30am 8.5 4.2 5.1 79 1.6 NNW 17 22 9 12 1022.9 - 0.0
27/11:00am 9.4 4.4 4.4 71 2.4 NW 20 28 11 15 1023.3 - 0.0
27/10:30am 8.1 3.1 3.4 72 2.2 NW 19 28 10 15 1023.5 - 0.0
27/10:00am 7.9 2.8 3.9 76 1.9 WNW 20 32 11 17 1023.6 - 0.0
27/09:30am 7.7 2.5 3.6 75 1.9 WNW 20 33 11 18 1023.5 - 0.0
27/09:00am 7.3 2.0 3.0 74 2.0 WNW 20 33 11 18 1023.3 1024.6 0.0
27/08:30am 6.5 1.1 2.2 74 1.9 NW 20 28 11 15 1023.1 - 0.0
27/08:00am 5.8 -0.4 1.9 76 1.7 NW 24 35 13 19 1023.1 - 0.0
27/07:30am 5.8 0.2 1.0 71 2.1 NW 20 26 11 14 1023.1 - 0.0
27/07:00am 5.5 -0.6 0.3 69 2.2 WNW 22 30 12 16 1023.2 - 0.0
27/06:30am 5.2 -0.6 -0.4 67 2.3 NW 20 28 11 15 1022.8 - 0.0
27/06:00am 5.3 0.7 -0.9 64 2.5 WNW 13 19 7 10 1022.9 1024.2 0.0
27/05:30am 5.2 0.9 -1.9 60 2.8 WNW 11 17 6 9 1022.9 - 0.0
27/05:00am 5.6 0.1 -2.2 57 3.1 NW 17 22 9 12 1022.8 - 0.0
27/04:30am 5.8 -0.1 -2.0 57 3.1 NW 19 26 10 14 1022.9 - 0.0
27/04:00am 5.4 1.2 -0.8 64 2.5 WNW 11 15 6 8 1022.7 - 0.0
27/03:30am 4.0 -0.4 -2.8 61 2.6 WNW 11 11 6 6 1022.8 - 0.0
27/03:00am 5.4 0.2 -3.1 54 3.3 NW 15 20 8 11 1023.1 1024.4 0.0
27/02:30am 4.6 1.1 -3.2 57 3.0 NW 6 7 3 4 1023.5 - 0.0
27/02:00am 4.7 1.1 -3.8 54 3.2 N 6 6 3 3 1023.6 - 0.0
27/01:30am 4.7 1.0 -4.6 51 3.4 N 6 6 3 3 1023.7 - 0.0
27/01:00am 5.0 0.6 -5.9 45 3.9 NW 9 17 5 9 1024.1 - 0.0
27/12:30am 4.4 1.2 -3.1 58 2.9 NNW 4 6 2 3 1024.4 - 0.0
27/12:00am 4.5 0.9 -3.3 57 3.0 NNW 6 7 3 4 1024.5 1025.8 0.0
 
Date/Time
EST
Temp
°C
App
Temp
°C
Dew
Point
Rel
Hum
%
Delta-T
°C
Wind Press
QNH
hPa
Press
MSL
hPa
Rain
since 9 am
mm
Dir
 
Spd
km/h
Gust
km/h
Spd
kts
Gust
kts
26/11:30pm 3.4 0.1 -1.2 72 1.8 WNW 6 7 3 4 1024.6 - 0.0
26/11:00pm 3.6 0.7 -1.0 72 1.8 WNW 4 7 2 4 1024.9 - 0.0
26/10:30pm 4.6 1.2 -0.6 69 2.1 N 7 9 4 5 1024.8 - 0.0
26/10:00pm 4.2 0.7 -1.4 67 2.2 N 7 9 4 5 1025.0 - 0.0
26/09:30pm 4.4 0.8 -1.8 64 2.4 N 7 9 4 5 1025.2 - 0.0
26/09:00pm 4.3 0.8 -2.5 61 2.6 N 6 7 3 4 1025.2 1026.5 0.0
26/08:30pm 3.1 -0.5 -2.0 69 2.0 WNW 7 9 4 5 1025.5 - 0.0
26/08:00pm 3.8 0.3 -2.8 62 2.5 N 6 9 3 5 1025.9 - 0.0
26/07:30pm 3.1 0.0 -2.6 66 2.2 NW 4 6 2 3 1026.3 - 0.0
26/07:00pm 3.6 0.1 -2.6 64 2.4 S 6 9 3 5 1025.9 - 0.0
26/06:30pm 4.1 1.4 -2.7 61 2.6 NE 2 6 1 3 1025.9 - 0.0
26/06:00pm 4.1 1.3 -3.6 57 2.9 SW 2 6 1 3 1026.2 1027.6 0.0
26/05:30pm 5.1 2.2 -4.2 51 3.5 SE 2 6 1 3 1025.8 - 0.0
26/05:00pm 6.1 2.2 -4.3 47 3.9 ENE 7 9 4 5 1025.8 - 0.0
26/04:30pm 7.1 3.8 -4.6 43 4.4 E 4 6 2 3 1025.8 - 0.0

Other Formats:

Comma delimited format used in spreadsheet applications
http://www.bom.gov.au/fwo/IDV60801/IDV60801.94905.axf

JavaScript Object Notation format (JSON) in row-major order
http://www.bom.gov.au/fwo/IDV60801/IDV60801.94905.json